[Date Prev][Date Next][Thread Prev][Thread Next] - [Date Index][Thread Index][Author Index]

MIR~Sputnik~ISS Keps 11/23



MIR
1 16609U 86017A   98327.20181816  .00021757  00000-0  17201-3 0 00054
2 16609 051.6596 318.2323 0008102 006.5633 353.5474 15.71264271729007

SPUTNIK 41
1 25533U 98062C   98327.12615352  .00141586  00000-0  95204-3 0    86
2 25533  51.6627 318.4678 0008667  15.6297 344.4990 15.74175435  1850

ISS
1 25544U 98067A   98327.71832314  .00000000  00000-0  00000 0 0   268
2 25544  51.5912 150.2062 0054788  62.2600 298.4623 15.74039957   823

----
Via the sarex mailing list at AMSAT.ORG courtesy of AMSAT-NA.
To unsubscribe, send "unsubscribe sarex" to Majordomo@amsat.org



AMSAT Top AMSAT Home